Tracking 22879 objects as of 21-Apr-2021
HD Live streaming from Space Station
objects crossing your sky now

OBJECT E

Track OBJECT E now!
10-day predictions


NORAD ID: 43853
Int'l Code: 2018-104E
Perigee: 480.6 km
Apogee: 502.7 km
Inclination: 85.0 °
Period: 94.3 minutes
Semi major axis: 6862 km
RCS: Unknown
Launch date: December 16, 2018
Source: United States (US)
Launch site: Rocket Lab Launch Complex (RLLC)
aabbcc
Your satellite tracking list
Your tracking list is empty




NASA's NSSDC Master Catalog

Two Line Element Set (TLE):
1 43853U 18104E   21111.61488367  .00006508  00000-0  24270-3 0  9993
2 43853  85.0302 329.5870 0016136   8.3025 351.8483 15.27085260130543
Source of the keplerian elements: Caltech